Location: Baix
(44.7118°N, 4.7648°E)
Time: 00:47:35
(UTC+00:00)

Courier 1B Rocket - Visible Passes

Search period start: 04 December 2021 00:00
Search period end: 14 December 2021 00:00
Orbit: 920 x 1202 km, 28.2° (Epoch: 03 December)

Date Brightness Start Highest point End Pass type
(mag) Time Alt. Az. Time Alt. Az. Time Alt. Az.
11 Dec 7.1 18:58:30 10° SSW 19:01:33 15° S 19:01:33 15° S visible
12 Dec 7.2 17:58:42 10° S 18:01:26 12° SSE 18:04:06 10° SE visible
12 Dec 7.3 19:49:05 10° SW 19:50:42 14° SSW 19:50:42 14° SSW visible
13 Dec 6.9 18:48:23 10° SSW 18:53:01 18° S 18:53:29 18° SSE visible
